GW5385 Weather Reports


time (UTC)temp
F
wind
direction
speed
knots
gust
knots
rain 1hr
in
rain 24hr
in
rain mn
in
humidity
%
barometer
mb
20260503013035 63 13 3.5 6.1 0.00 0.00 0.00 39 1017.4
20260503011529 64 35 2.6 7.8 0.00 0.00 0.00 37 1017.5
20260503010024 64 84 2.6 5.2 0.00 0.00 0.00 38 1017.5
20260503004523 64 360 0.0 0.0 0.00 0.00 0.00 37 1017.8
20260503003023 64 360 0.9 2.6 0.00 0.00 0.00 37 1018.0
20260503001520 64 46 0.0 2.6 0.00 0.00 0.00 38 1018.1
20260503000020 64 11 0.9 5.2 0.00 0.00 0.00 38 1018.2
20260502234519 64 44 2.6 7.0 0.00 0.00 0.00 37 1018.3
20260502233019 66 70 0.9 6.1 0.00 0.00 0.00 35 1018.3
20260502231612 67 289 0.9 4.3 0.00 0.00 0.00 35 1018.5
20260502230047 66 119 0.9 5.2 0.00 0.00 0.00 35 1018.7
20260502224554 66 226 0.0 6.1 0.00 0.00 0.00 36 1018.9
20260502223043 64 346 2.6 7.8 0.00 0.00 0.00 38 1019.2
20260502221544 64 277 0.0 9.6 0.00 0.00 0.00 38 1019.4
20260502220048 66 344 2.6 7.8 0.00 0.00 0.00 36 1019.6
20260502214538 65 239 1.7 5.2 0.00 0.00 0.00 38 1019.8
20260502213036 64 288 0.0 1.7 0.00 0.00 0.00 39 1020.0
20260502211535 63 302 0.9 3.5 0.00 0.00 0.00 40 1020.3
20260502210035 63 328 1.7 7.8 0.00 0.00 0.00 40 1020.5
20260502204531 63 12 2.6 8.7 0.00 0.00 0.00 39 1020.5
20260502203031 64 348 5.2 8.7 0.00 0.00 0.00 40 1020.5
20260502201534 64 332 3.5 8.7 0.00 0.00 0.00 40 1020.7
20260502200027 63 51 4.3 12.2 0.00 0.00 0.00 42 1020.9
20260502194522 62 71 5.2 10.4 0.00 0.00 0.00 43 1021.2
20260502193022 59 71 6.1 8.7 0.00 0.00 0.00 45 1021.4
20260502191521 59 79 6.1 8.7 0.00 0.00 0.00 45 1021.5
20260502190026 59 73 5.2 9.6 0.00 0.00 0.00 45 1021.6
20260502184619 59 69 7.0 11.3 0.00 0.00 0.00 45 1021.7
20260502183051 59 83 4.3 7.8 0.00 0.00 0.00 45 1021.7
20260502181552 60 53 5.2 9.6 0.00 0.00 0.00 44 1021.7
20260502163045 61 64 10.4 14.8 0.00 0.00 0.00 40 1021.7
20260502161557 62 64 8.7 14.8 0.00 0.00 0.00 42 1021.7
20260502151529 59 51 9.6 13.9 0.00 0.00 0.00 44 1021.7
20260502130116 48 40 3.5 6.1 0.00 0.00 0.00 56 1021.0
20260502123121 47 32 4.3 8.7 0.00 0.00 0.00 57 1020.8
20260502121551 45 20 4.3 6.1 0.00 0.00 0.00 59 1020.8
20260502114547 47 33 4.3 8.7 0.00 0.00 0.00 55 1020.5
20260502113041 48 39 6.1 11.3 0.00 0.00 0.00 54 1020.3
20260502111537 49 33 9.6 12.2 0.00 0.00 0.00 52 1020.1
20260502110044 50 25 9.6 13.9 0.00 0.00 0.00 51 1019.8
20260502104528 50 24 7.8 11.3 0.00 0.00 0.00 50 1019.5
20260502103028 50 17 7.0 10.4 0.00 0.00 0.00 50 1019.3
20260502101524 50 25 7.0 9.6 0.00 0.00 0.00 49 1019.0
20260502091513 51 43 4.3 11.3 0.00 0.00 0.00 44 1018.2
20260502071529 47 250 0.0 2.6 0.00 0.00 0.00 47 1017.4
20260502070025 49 286 0.9 2.6 0.00 0.00 0.00 44 1017.4
20260502064525 48 245 0.0 2.6 0.00 0.00 0.00 45 1017.4
20260502063019 48 305 1.7 3.5 0.00 0.00 0.00 45 1017.3
20260502061517 49 323 0.9 4.3 0.00 0.00 0.00 44 1017.4
20260502060013 47 4 1.7 6.1 0.00 0.00 0.00 46 1017.4
20260502054521 48 308 0.9 3.5 0.00 0.00 0.00 44 1017.3
20260502053011 49 319 1.7 3.5 0.00 0.00 0.00 43 1017.3
20260502051518 49 330 0.0 2.6 0.00 0.00 0.00 42 1017.3
20260502050027 48 302 0.9 2.6 0.00 0.00 0.00 41 1017.3
20260502044509 49 295 0.9 2.6 0.00 0.00 0.00 40 1017.2
20260502043009 50 290 0.0 1.7 0.00 0.00 0.00 38 1017.2
20260502041546 50 290 0.9 2.6 0.00 0.00 0.00 37 1017.2
20260502040038 51 301 1.7 3.5 0.00 0.00 0.00 35 1017.1
20260502034535 52 306 0.9 3.5 0.00 0.00 0.00 34 1016.9
20260502033043 55 307 0.0 1.7 0.00 0.00 0.00 32 1016.8
20260502031534 58 297 0.0 2.6 0.00 0.00 0.00 29 1016.7
20260502030034 59 293 0.9 2.6 0.00 0.00 0.00 28 1016.4
20260502024531 61 275 0.0 2.6 0.00 0.00 0.00 26 1016.3
20260502023031 63 293 0.9 3.5 0.00 0.00 0.00 25 1016.2
20260502021530 64 264 1.7 3.5 0.00 0.00 0.00 24 1016.2
20260502020030 66 269 0.9 2.6 0.00 0.00 0.00 22 1016.0
20260502014531 68 282 0.9 2.6 0.00 0.00 0.00 21 1016.0